This demonstration page uses our WeatherBlox Daily Observations layout. Learn more.

Left ArrowRight Arrow

38.20091, -84.87328

Hourly Observations for April 3, 2020

Temp ( °F °C ) Dew Point ( °F °C ) Humidity (%) Winds ( mph kmh ) Pressure ( in mb ) Visibility ( mi km ) Precip ( " mm )
12:53 am 00:53 Clear 42 5.6 36 2.2 79 79 Calm 30.09 1019 10 16 0.00 0.00
1:53 am 01:53 Clear 41 5 35 1.7 79 79 Calm 30.09 1019 10 16 0.00 0.00
2:53 am 02:53 Clear 39 3.9 35 1.7 86 86 Calm 30.08 1019 10 16 0.00 0.00
3:53 am 03:53 Clear 40 4.4 36 2.2 86 86 Calm 30.06 1018 10 16 0.00 0.00
4:53 am 04:53 Clear 40 4.4 36 2.2 86 86 Calm 30.06 1018 10 16 0.00 0.00
5:53 am 05:53 Clear 42 5.6 38 3.3 85 85 Calm 30.07 1018 10 16 0.00 0.00
6:53 am 06:53 Clear 41 5 37 2.8 86 86 Calm 30.09 1019 10 16 0.00 0.00
7:53 am 07:53 Sunny 41 5 37 2.8 86 86 Calm 30.11 1020 10 16 0.00 0.00
8:53 am 08:53 Sunny 47 8.3 39 3.9 74 74 Calm 30.13 1020 10 16 0.00 0.00
9:53 am 09:53 Sunny 55 12.8 41 5 59 59 ESE 3 6 30.12 1020 10 16 0.00 0.00
10:53 am 10:53 Sunny 59 15 38 3.3 46 46 Calm 30.12 1020 10 16 0.00 0.00
11:53 am 11:53 Sunny 63 17.2 38 3.3 40 40 ENE 6 9 30.11 1020 10 16 0.00 0.00
12:53 pm 12:53 undefined 63 17.2 38 3.3 40 40 Calm 30.09 1019 10 16 0.00 0.00
1:53 pm 13:53 Sunny 66 18.9 38 3.3 36 36 VRB 3 6 30.06 1018 10 16 0.00 0.00
2:53 pm 14:53 Mostly Sunny 69 20.6 38 3.3 32 32 ENE 3 6 30.04 1017 10 16 0.00 0.00
3:53 pm 15:53 Sunny 69 20.6 36 2.2 30 30 Calm 30.01 1016 10 16 0.00 0.00
4:53 pm 16:53 Sunny 70 21.1 36 2.2 29 29 VRB 3 6 30.00 1016 10 16 0.00 0.00
5:53 pm 17:53 Sunny 69 20.6 40 4.4 35 35 SSE 7 11 29.99 1016 10 16 0.00 0.00
6:53 pm 18:53 Sunny 64 17.8 41 5 43 43 ESE 6 9 29.99 1016 10 16 0.00 0.00
7:53 pm 19:53 Sunny 64 17.8 40 4.4 41 41 SE 3 6 30.00 1016 10 16 0.00 0.00
8:53 pm 20:53 Clear 57 13.9 43 6.1 60 60 Calm 30.00 1016 10 16 0.00 0.00
9:53 pm 21:53 Clear 53 11.7 43 6.1 69 69 Calm 30.01 1016 10 16 0.00 0.00
10:53 pm 22:53 Clear 51 10.6 42 5.6 71 71 Calm 30.01 1016 10 16 0.00 0.00
11:53 pm 23:53 Partly Cloudy 50 10 41 5 71 71 Calm 30.01 1016 10 16 0.00 0.00

Powered by AerisWeather